Project,Study,Ord_Occ,Event_Num,Cast_ID,Date_Time_UTC,Date_Time_PST,Lat_Dec,Lon_Dec,Sta_ID,Line,Sta,Depth,Pressure,PrQ,Temp1,Temp1Q,Temp2,Temp2Q,TempAve,Salt1,Salt1Q,Salt1_Corr,Salt2,Salt2Q,Salt2_Corr,SaltAve_Corr,Ox1,Ox1Q,Ox1_CruiseCorr,Ox1_StaCorr,Ox2,Ox2Q,Ox2_CruiseCorr,Ox2_StaCorr,OxAve_StaCorr,Ox1uM,Ox1uM_CruiseCorr,Ox1uM_StaCorr,Ox2uM,Ox2uM_CruiseCorr,Ox2uM_StaCorr,OxAveuM_StaCorr,FluorV,FluorQ,EstChl_CruiseCorr,EstChl_StaCorr,ISUSV,ISUSQ,EstNO3_CruiseCorr,EstNO3_StaCorr,SigThetaTS1,SigThetaTS1Q,SigThetaTS2,SigThetaTS2Q,BAT,XMiss,TransQ,pH,pHQ,SPAR,SPARQ,PAR,PARQ,PoT1,PoT2,DynHt,SVA,OxSat1,OxSat2,BTL_Depth,BTL_Temp,SaltB,OxB,OxBuM,Chl-a,Phaeo,NO3,NO2,NH4,PO4,SIL
CalCOFI,2105SH,016,,2105_016d,07-May-2021 14:11:17,07-May-2021 06:11:17,31.75146,-121.31386,090.0 080.0,090.0,080.0,3.000,3.021,,13.7455,,13.7459,,13.7457,33.4478,,33.4490,33.4479,,33.4498,33.4494,5.7628,,6.0928,6.1186,5.8524,,6.1213,6.1336,6.1261,251.079,264.9768,265.1866,254.985,276.2945,265.9292,265.5579,0.0910,,0.4504,0.4472,2.6085,,4.6005,,25.0403,,25.0403,,,,,,,,,,,13.7450,13.7455,0.0002,291.019,97.769,99.291,3,13.729,33.4457,6.095,265.55,0.736,0.198,4.29,0.095,0.19,0.59,3.16
CalCOFI,2105SH,016,,2105_016d,07-May-2021 14:11:37,07-May-2021 06:11:37,31.75151,-121.31393,090.0 080.0,090.0,080.0,4.000,4.028,,13.7451,,13.7456,,13.7454,33.4478,,33.4490,33.4472,,33.4491,33.4491,5.7870,,6.1181,6.1442,5.8548,,6.1238,6.1361,6.1402,252.136,266.0818,266.2940,255.088,277.4361,266.0357,266.1649,0.0985,,0.5044,0.4954,2.6088,,4.6005,,25.0404,,25.0398,,,,,,,,,,,13.7446,13.7450,0.0102,291.037,98.180,99.330,,,,,,,,,,,,
CalCOFI,2105SH,016,,2105_016d,07-May-2021 14:11:51,07-May-2021 06:11:51,31.75154,-121.31399,090.0 080.0,090.0,080.0,5.000,5.035,,13.7457,,13.7461,,13.7459,33.4480,,33.4492,33.4480,,33.4499,33.4496,5.7568,,6.0866,6.1122,5.8556,,6.1246,6.1369,6.1246,250.817,264.7029,264.9121,255.125,276.0116,266.0740,265.4931,0.1157,,0.6272,0.6059,2.6086,,4.6005,,25.0405,,25.0404,,,,,,,,,,,13.7450,13.7454,0.0175,291.057,97.667,99.346,,,,,,,,,,,,
CalCOFI,2105SH,016,,2105_016d,07-May-2021 14:11:54,07-May-2021 06:11:54,31.75154,-121.31400,090.0 080.0,090.0,080.0,6.000,6.042,,13.7456,,13.7462,,13.7459,33.4480,,33.4492,33.4479,,33.4498,33.4495,5.7915,,6.1229,6.1489,5.8513,,6.1202,6.1324,6.1407,252.331,266.2856,266.4983,254.935,277.6467,265.8774,266.1879,0.1161,,0.6301,0.6084,2.6085,,4.6005,,25.0405,,25.0404,,,,,,,,,,,13.7447,13.7453,0.0206,291.084,98.257,99.272,,,,,,,,,,,,
CalCOFI,2105SH,016,,2105_016d,07-May-2021 14:11:56,07-May-2021 06:11:56,31.75154,-121.31402,090.0 080.0,090.0,080.0,7.000,7.049,,13.7459,,13.7459,,13.7459,33.4479,,33.4491,33.4479,,33.4498,33.4495,5.7652,,6.0953,6.1211,5.8536,,6.1226,6.1348,6.1280,251.186,265.0886,265.2987,255.036,276.4101,265.9819,265.6403,0.0984,,0.5037,0.4947,2.6083,,4.6005,,25.0404,,25.0404,,,,,,,,,,,13.7449,13.7449,0.0236,291.124,97.812,99.311,,,,,,,,,,,,
CalCOFI,2105SH,016,,2105_016d,07-May-2021 14:11:58,07-May-2021 06:11:58,31.75154,-121.31402,090.0 080.0,090.0,080.0,8.000,8.056,,13.7472,,13.7477,,13.7475,33.4478,,33.4490,33.4479,,33.4498,33.4494,5.7667,,6.0969,6.1227,5.8480,,6.1168,6.1290,6.1259,251.251,265.1566,265.3668,254.790,276.4803,265.7274,265.5471,0.1136,,0.6123,0.5924,2.6080,,4.6005,,25.0401,,25.0401,,,,,,,,,,,13.7461,13.7465,0.0265,291.178,97.839,99.219,,,,,,,,,,,,
CalCOFI,2105SH,016,,2105_016d,07-May-2021 14:12:00,07-May-2021 06:12:00,31.75154,-121.31402,090.0 080.0,090.0,080.0,9.000,9.063,,13.7462,,13.7471,,13.7467,33.4478,,33.4490,33.4479,,33.4498,33.4494,5.7711,,6.1015,6.1273,5.8460,,6.1147,6.1269,6.1271,251.441,265.3552,265.5659,254.702,276.6855,265.6364,265.6012,0.1060,,0.5582,0.5435,2.6078,,4.6005,,25.0404,,25.0402,,,,,,,,,,,13.7449,13.7459,0.0294,291.184,97.912,99.183,,,,,,,,,,,,
CalCOFI,2105SH,016,,2105_016d,07-May-2021 14:12:01,07-May-2021 06:12:01,31.75154,-121.31402,090.0 080.0,090.0,080.0,10.000,10.070,,13.7459,,13.7464,,13.7462,33.4480,,33.4492,33.4480,,33.4499,33.4496,5.7556,,6.0853,6.1109,5.8501,,6.1189,6.1312,6.1211,250.766,264.6496,264.8587,254.882,275.9565,265.8226,265.3407,0.1034,,0.5396,0.5268,2.6076,,4.6005,,25.0406,,25.0405,,,,,,,,,,,13.7445,13.7450,0.0324,291.194,97.648,99.252,,,,,,,,,,,,
CalCOFI,2105SH,016,,2105_016d,07-May-2021 14:12:03,07-May-2021 06:12:03,31.75156,-121.31404,090.0 080.0,090.0,080.0,11.000,11.077,,13.7460,,13.7465,,13.7463,33.4478,,33.4490,33.4479,,33.4498,33.4494,5.7791,,6.1099,6.1358,5.8537,,6.1227,6.1350,6.1354,251.788,265.7180,265.9294,255.041,277.0602,265.9871,265.9583,0.0988,,0.5066,0.4973,2.6072,,4.6005,,25.0405,,25.0404,,,,,,,,,,,13.7445,13.7450,0.0353,291.230,98.046,99.314,11,13.728,,,265.46,0.663,0.187,4.18,0.090,0.18,0.62,2.92
CalCOFI,2105SH,016,,2105_016d,07-May-2021 14:12:06,07-May-2021 06:12:06,31.75156,-121.31405,090.0 080.0,090.0,080.0,12.000,12.084,,13.7451,,13.7454,,13.7453,33.4478,,33.4490,33.4478,,33.4497,33.4494,5.7698,,6.1002,6.1260,5.8537,,6.1227,6.1350,6.1305,251.382,265.2935,265.5041,255.040,276.6218,265.9861,265.7451,0.1130,,0.6081,0.5885,2.6069,,4.6005,,25.0407,,25.0406,,,,,,,,,,,13.7434,13.7438,0.0382,291.238,97.886,99.311,,,,,,,,,,,,
CalCOFI,2105SH,016,,2105_016d,07-May-2021 14:12:07,07-May-2021 06:12:07,31.75156,-121.31406,090.0 080.0,090.0,080.0,13.000,13.091,,13.7440,,13.7447,,13.7444,33.4479,,33.4491,33.4479,,33.4498,33.4495,5.7795,,6.1103,6.1362,5.8535,,6.1225,6.1347,6.1355,251.809,265.7399,265.9514,255.031,277.0829,265.9767,265.9641,0.1051,,0.5517,0.5378,2.6067,,4.6005,,25.0410,,25.0408,,,,,,,,,,,13.7422,13.7428,0.0412,291.237,98.050,99.306,,,,,,,,,,,,
CalCOFI,2105SH,016,,2105_016d,07-May-2021 14:12:08,07-May-2021 06:12:08,31.75156,-121.31406,090.0 080.0,090.0,080.0,14.000,14.098,,13.7420,,13.7424,,13.7422,33.4478,,33.4490,33.4478,,33.4497,33.4494,5.7692,,6.0995,6.1253,5.8503,,6.1191,6.1314,6.1284,251.358,265.2685,265.4789,254.891,276.5958,265.8319,265.6554,0.1080,,0.5724,0.5564,2.6064,,4.6005,,25.0414,,25.0413,,,,,,,,,,,13.7400,13.7404,0.0441,291.227,97.871,99.247,,,,,,,,,,,,
CalCOFI,2105SH,016,,2105_016d,07-May-2021 14:12:10,07-May-2021 06:12:10,31.75157,-121.31408,090.0 080.0,090.0,080.0,15.000,15.105,,13.7439,,13.7438,,13.7439,33.4479,,33.4491,33.4478,,33.4497,33.4494,5.7432,,6.0723,6.0978,5.8528,,6.1217,6.1340,6.1159,250.226,264.0851,264.2930,255.002,275.3733,265.9467,265.1199,0.1102,,0.5881,0.5705,2.6059,,4.6005,,25.0411,,25.0410,,,,,,,,,,,13.7418,13.7417,0.0470,291.282,97.434,99.294,,,,,,,,,,,,
CalCOFI,2105SH,016,,2105_016d,07-May-2021 14:12:13,07-May-2021 06:12:13,31.75158,-121.31408,090.0 080.0,090.0,080.0,16.000,16.113,,13.7438,,13.7425,,13.7432,33.4479,,33.4491,33.4478,,33.4497,33.4494,5.7686,,6.0989,6.1247,5.8415,,6.1100,6.1222,6.1235,251.331,265.2402,265.4506,254.507,276.5667,265.4347,265.4427,0.2083,,1.2641,1.2008,2.6051,,4.6005,,25.0411,,25.0413,,,,,,,,,,,13.7416,13.7403,0.0500,291.314,97.864,99.098,,,,,,,,,,,,
CalCOFI,2105SH,016,,2105_016d,07-May-2021 14:12:14,07-May-2021 06:12:14,31.75158,-121.31408,090.0 080.0,090.0,080.0,17.000,17.120,,13.7417,,13.7430,,13.7424,33.4479,,33.4491,33.4478,,33.4497,33.4494,5.7391,,6.0681,6.0935,5.8416,,6.1101,6.1223,6.1079,250.044,263.8948,264.1023,254.511,275.1767,265.4388,264.7706,0.1000,,0.5152,0.5050,2.6044,,4.6005,,25.0416,,25.0412,,,,,,,,,,,13.7393,13.7406,0.0529,291.293,97.359,99.101,,,,,,,,,,,,
CalCOFI,2105SH,016,,2105_016d,07-May-2021 14:12:15,07-May-2021 06:12:15,31.75158,-121.31408,090.0 080.0,090.0,080.0,18.000,18.127,,13.7324,,13.7315,,13.7320,33.4475,,33.4487,33.4453,,33.4472,33.4480,5.7599,,6.0898,6.1155,5.8352,,6.1035,6.1156,6.1156,250.953,264.8451,265.0546,254.233,276.1584,265.1512,265.1029,0.1213,,0.6669,0.6418,2.6037,,4.6005,,25.0432,,25.0417,,,,,,,,,,,13.7298,13.7290,0.0558,291.168,97.694,98.968,,,,,,,,,,,,
CalCOFI,2105SH,016,,2105_016d,07-May-2021 14:12:17,07-May-2021 06:12:17,31.75158,-121.31410,090.0 080.0,090.0,080.0,19.000,19.134,,13.5570,,13.5402,,13.5486,33.4433,,33.4445,33.4415,,33.4434,33.4440,5.7592,,6.0891,6.1147,5.8577,,6.1268,6.1391,6.1269,250.916,264.8064,265.0158,255.204,276.1185,266.1557,265.5858,0.1212,,0.6662,0.6412,2.6025,,4.6005,,25.0758,,25.0778,,,,,,,,,,,13.5543,13.5376,0.0588,288.092,97.331,98.959,,,,,,,,,,,,
CalCOFI,2105SH,016,,2105_016d,07-May-2021 14:12:20,07-May-2021 06:12:20,31.75158,-121.31412,090.0 080.0,090.0,080.0,20.000,20.141,,13.3384,,13.3388,,13.3386,33.4420,,33.4432,33.4382,,33.4401,33.4417,5.8046,,6.1366,6.1628,5.8934,,6.1638,6.1764,6.1696,252.880,266.8596,267.0735,256.750,278.2396,267.7551,267.4143,0.1391,,0.7920,0.7562,2.6011,,4.6005,,25.1190,,25.1160,,,,,,,,,,,13.3357,13.3360,0.0617,283.995,97.658,99.151,,,,,,,,,,,,
CalCOFI,2105SH,016,,2105_016d,07-May-2021 14:12:21,07-May-2021 06:12:21,31.75158,-121.31412,090.0 080.0,090.0,080.0,21.000,21.148,,13.3100,,13.3068,,13.3084,33.4405,,33.4417,33.4369,,33.4388,33.4403,5.8019,,6.1337,6.1599,5.8913,,6.1616,6.1742,6.1671,252.762,266.7362,266.9498,256.657,278.1122,267.6588,267.3043,0.1278,,0.7128,0.6836,2.6005,,4.6005,,25.1236,,25.1215,,,,,,,,,,,13.3071,13.3039,0.0645,283.590,97.555,99.050,,,,,,,,,,,,
CalCOFI,2105SH,016,,2105_016d,07-May-2021 14:12:23,07-May-2021 06:12:23,31.75159,-121.31412,090.0 080.0,090.0,080.0,22.000,22.155,,13.2835,,13.2830,,13.2833,33.4411,,33.4423,33.4387,,33.4406,33.4415,5.8100,,6.1422,6.1685,5.8854,,6.1555,6.1680,6.1683,253.116,267.1063,267.3207,256.397,278.4945,267.3899,267.3553,0.1383,,0.7865,0.7511,2.5988,,4.6005,,25.1294,,25.1277,,,,,,,,,,,13.2805,13.2800,0.0674,283.060,97.639,98.903,,,,,,,,,,,,
CalCOFI,2105SH,016,,2105_016d,07-May-2021 14:12:26,07-May-2021 06:12:26,31.75160,-121.31412,090.0 080.0,090.0,080.0,23.000,23.162,,13.2752,,13.2762,,13.2757,33.4414,,33.4426,33.4398,,33.4417,33.4422,5.7950,,6.1265,6.1526,5.8769,,6.1467,6.1592,6.1559,252.462,266.4226,266.6355,256.028,277.7882,267.0081,266.8218,0.1271,,0.7079,0.6791,2.5966,,4.6005,,25.1314,,25.1299,,,,,,,,,,,13.2720,13.2730,0.0703,282.901,97.371,98.747,,,,,,,,,,,,
CalCOFI,2105SH,016,,2105_016d,07-May-2021 14:12:27,07-May-2021 06:12:27,31.75160,-121.31412,090.0 080.0,090.0,080.0,24.000,24.169,,13.2666,,13.2668,,13.2667,33.4416,,33.4428,33.4402,,33.4421,33.4425,5.7951,,6.1266,6.1527,5.8762,,6.1460,6.1584,6.1556,252.464,266.4247,266.6376,255.996,277.7903,266.9750,266.8063,0.1343,,0.7585,0.7254,2.5957,,4.6005,,25.1332,,25.1321,,,,,,,,,,,13.2633,13.2635,0.0731,282.752,97.355,98.716,,,,,,,,,,,,
CalCOFI,2105SH,016,,2105_016d,07-May-2021 14:12:28,07-May-2021 06:12:28,31.75160,-121.31413,090.0 080.0,090.0,080.0,25.000,25.176,,13.2564,,13.2568,,13.2566,33.4419,,33.4431,33.4406,,33.4425,33.4428,5.7793,,6.1101,6.1360,5.8709,,6.1405,6.1529,6.1445,251.774,265.7033,265.9147,255.767,277.0451,266.7381,266.3264,0.1532,,0.8901,0.8468,2.5944,,4.6005,,25.1356,,25.1345,,,,,,,,,,,13.2529,13.2533,0.0760,282.555,97.069,98.608,,,,,,,,,,,,
CalCOFI,2105SH,016,,2105_016d,07-May-2021 14:12:31,07-May-2021 06:12:31,31.75160,-121.31414,090.0 080.0,090.0,080.0,26.000,26.184,,13.2492,,13.2494,,13.2493,33.4421,,33.4433,33.4411,,33.4430,33.4432,5.7906,,6.1219,6.1480,5.8574,,6.1265,6.1388,6.1434,252.267,266.2187,266.4312,255.175,277.5776,266.1257,266.2785,0.1225,,0.6754,0.6496,2.5918,,4.6005,,25.1372,,25.1364,,,,,,,,,,,13.2457,13.2459,0.0788,282.432,97.245,98.366,,,,,,,,,,,,
CalCOFI,2105SH,016,,2105_016d,07-May-2021 14:12:32,07-May-2021 06:12:32,31.75160,-121.31414,090.0 080.0,090.0,080.0,27.000,27.191,,13.2393,,13.2394,,13.2394,33.4428,,33.4440,33.4418,,33.4437,33.4439,5.7577,,6.0875,6.1132,5.8562,,6.1253,6.1376,6.1254,250.833,264.7196,264.9289,255.124,276.0288,266.0730,265.5010,0.1319,,0.7416,0.7099,2.5899,,4.6005,,25.1397,,25.1389,,,,,,,,,,,13.2356,13.2357,0.0817,282.217,96.673,98.326,,,,,,,,,,,,
CalCOFI,2105SH,016,,2105_016d,07-May-2021 14:12:35,07-May-2021 06:12:35,31.75161,-121.31414,090.0 080.0,090.0,080.0,28.000,28.198,,13.2325,,13.2330,,13.2328,33.4428,,33.4440,33.4420,,33.4439,33.4440,5.7541,,6.0837,6.1093,5.8479,,6.1167,6.1289,6.1191,250.678,264.5576,264.7665,254.763,275.8614,265.6995,265.2330,0.1349,,0.7627,0.7292,2.5867,,4.6005,,25.1411,,25.1404,,,,,,,,,,,13.2287,13.2292,0.0845,282.108,96.600,98.175,,,,,,,,,,,,
CalCOFI,2105SH,016,,2105_016d,07-May-2021 14:12:37,07-May-2021 06:12:37,31.75162,-121.31416,090.0 080.0,090.0,080.0,29.000,29.205,,13.2113,,13.2108,,13.2111,33.4420,,33.4432,33.4407,,33.4426,33.4429,5.7367,,6.0655,6.0909,5.8346,,6.1029,6.1150,6.1030,249.915,263.7599,263.9671,254.180,275.0374,265.0964,264.5318,0.1528,,0.8873,0.8442,2.5826,,4.6005,,25.1448,,25.1439,,,,,,,,,,,13.2073,13.2068,0.0873,281.788,96.264,97.905,,,,,,,,,,,,
CalCOFI,2105SH,016,,2105_016d,07-May-2021 14:12:39,07-May-2021 06:12:39,31.75162,-121.31416,090.0 080.0,090.0,080.0,30.000,30.212,,13.1593,,13.1584,,13.1589,33.4405,,33.4417,33.4391,,33.4410,33.4414,5.7379,,6.0668,6.0922,5.8368,,6.1052,6.1173,6.1048,249.969,263.8164,264.0237,254.276,275.0957,265.1957,264.6097,0.1545,,0.8991,0.8551,2.5806,,4.6005,,25.1541,,25.1531,,,,,,,,,,,13.1552,13.1543,0.0902,280.929,96.182,97.836,,,,,,,,,,,,
CalCOFI,2105SH,016,,2105_016d,07-May-2021 14:12:40,07-May-2021 06:12:40,31.75162,-121.31417,090.0 080.0,090.0,080.0,31.000,31.219,,13.1484,,13.1486,,13.1485,33.4411,,33.4423,33.4399,,33.4418,33.4421,5.7500,,6.0795,6.1050,5.8388,,6.1072,6.1194,6.1122,250.493,264.3642,264.5727,254.364,275.6616,265.2867,264.9297,0.1492,,0.8624,0.8211,2.5778,,4.6005,,25.1567,,25.1557,,,,,,,,,,,13.1442,13.1444,0.0930,280.709,96.362,97.851,,,,,,,,,,,,
CalCOFI,2105SH,016,,2105_016d,07-May-2021 14:12:43,07-May-2021 06:12:43,31.75162,-121.31418,090.0 080.0,090.0,080.0,32.000,32.226,,13.1451,,13.1442,,13.1447,33.4409,,33.4421,33.4398,,33.4417,33.4419,5.7185,,6.0465,6.0717,5.8076,,6.0749,6.0868,6.0793,249.122,262.9309,263.1364,253.003,274.1810,263.8788,263.5076,0.1453,,0.8353,0.7960,2.5734,,4.6005,,25.1572,,25.1566,,,,,,,,,,,13.1407,13.1398,0.0958,280.685,95.828,97.319,32,13.101,,,262.03,0.562,0.311,5.35,0.101,0.18,0.65,3.83
CalCOFI,2105SH,016,,2105_016d,07-May-2021 14:12:44,07-May-2021 06:12:44,31.75162,-121.31418,090.0 080.0,090.0,080.0,33.000,33.234,,13.1306,,13.1305,,13.1306,33.4391,,33.4403,33.4383,,33.4402,33.4403,5.7069,,6.0344,6.0594,5.8063,,6.0736,6.0855,6.0725,248.615,262.4009,262.6052,252.947,273.6334,263.8209,263.2131,0.1391,,0.7920,0.7562,2.5706,,4.6005,,25.1588,,25.1581,,,,,,,,,,,13.1260,13.1260,0.0987,280.559,95.604,97.269,,,,,,,,,,,,
CalCOFI,2105SH,016,,2105_016d,07-May-2021 14:12:46,07-May-2021 06:12:46,31.75163,-121.31418,090.0 080.0,090.0,080.0,34.000,34.241,,13.1188,,13.1189,,13.1189,33.4380,,33.4392,33.4372,,33.4391,33.4392,5.7235,,6.0517,6.0770,5.8035,,6.0707,6.0826,6.0798,249.338,263.1567,263.3626,252.824,274.4142,263.6936,263.5281,0.1430,,0.8193,0.7812,2.5670,,4.6005,,25.1603,,25.1597,,,,,,,,,,,13.1142,13.1143,0.1015,280.444,95.858,97.198,,,,,,,,,,,,
CalCOFI,2105SH,016,,2105_016d,07-May-2021 14:12:48,07-May-2021 06:12:48,31.75164,-121.31420,090.0 080.0,090.0,080.0,35.000,35.248,,13.1098,,13.1101,,13.1100,33.4385,,33.4397,33.4378,,33.4397,33.4397,5.7129,,6.0407,6.0657,5.7895,,6.0562,6.0679,6.0668,248.877,262.6748,262.8797,252.212,273.9164,263.0605,262.9701,0.1475,,0.8506,0.8102,2.5628,,4.6005,,25.1625,,25.1619,,,,,,,,,,,13.1050,13.1053,0.1043,280.263,95.664,96.945,,,,,,,,,,,,
CalCOFI,2105SH,016,,2105_016d,07-May-2021 14:12:50,07-May-2021 06:12:50,31.75163,-121.31420,090.0 080.0,090.0,080.0,36.000,36.255,,13.1031,,13.1035,,13.1033,33.4384,,33.4396,33.4378,,33.4397,33.4397,5.6694,,5.9952,6.0197,5.7780,,6.0443,6.0559,6.0378,246.981,260.6927,260.8933,251.713,271.8687,262.5443,261.7188,0.1430,,0.8193,0.7812,2.5592,,4.6005,,25.1638,,25.1632,,,,,,,,,,,13.0982,13.0985,0.1071,280.164,94.922,96.741,,,,,,,,,,,,
CalCOFI,2105SH,016,,2105_016d,07-May-2021 14:12:52,07-May-2021 06:12:52,31.75164,-121.31421,090.0 080.0,090.0,080.0,37.000,37.262,,13.0905,,13.0910,,13.0908,33.4381,,33.4393,33.4374,,33.4393,33.4393,5.6730,,5.9989,6.0235,5.7612,,6.0269,6.0384,6.0310,247.136,260.8548,261.0557,250.978,272.0361,261.7839,261.4198,0.1350,,0.7634,0.7299,2.5541,,4.6005,,25.1660,,25.1654,,,,,,,,,,,13.0855,13.0860,0.1100,279.976,94.957,96.434,,,,,,,,,,,,
CalCOFI,2105SH,016,,2105_016d,07-May-2021 14:12:54,07-May-2021 06:12:54,31.75164,-121.31422,090.0 080.0,090.0,080.0,38.000,38.269,,13.0732,,13.0729,,13.0731,33.4376,,33.4388,33.4367,,33.4386,33.4387,5.6588,,5.9841,6.0085,5.7366,,6.0014,6.0127,6.0106,246.518,260.2087,260.4083,249.906,271.3686,260.6750,260.5417,0.1323,,0.7444,0.7125,2.5490,,4.6005,,25.1691,,25.1685,,,,,,,,,,,13.0680,13.0678,0.1128,279.710,94.686,95.986,,,,,,,,,,,,
CalCOFI,2105SH,016,,2105_016d,07-May-2021 14:12:56,07-May-2021 06:12:56,31.75164,-121.31422,090.0 080.0,090.0,080.0,39.000,39.277,,13.0440,,13.0443,,13.0442,33.4382,,33.4394,33.4372,,33.4391,33.4393,5.6445,,5.9691,5.9933,5.7230,,5.9873,5.9985,5.9959,245.893,259.5553,259.7535,249.314,270.6936,260.0625,259.9080,0.1378,,0.7830,0.7478,2.5436,,4.6005,,25.1754,,25.1746,,,,,,,,,,,13.0387,13.0390,0.1156,279.137,94.390,95.703,,,,,,,,,,,,
CalCOFI,2105SH,016,,2105_016d,07-May-2021 14:12:58,07-May-2021 06:12:58,31.75166,-121.31422,090.0 080.0,090.0,080.0,40.000,40.284,,13.0113,,13.0111,,13.0112,33.4388,,33.4400,33.4379,,33.4398,33.4399,5.6332,,5.9573,5.9814,5.7097,,5.9735,5.9847,5.9831,245.398,259.0379,259.2349,248.733,270.1590,259.4615,259.3482,0.1348,,0.7620,0.7286,2.5367,,4.6005,,25.1824,,25.1817,,,,,,,,,,,13.0058,13.0057,0.1184,278.496,94.137,95.415,,,,,,,,,,,,
CalCOFI,2105SH,016,,2105_016d,07-May-2021 14:13:00,07-May-2021 06:13:00,31.75165,-121.31422,090.0 080.0,090.0,080.0,41.000,41.291,,12.9992,,12.9991,,12.9992,33.4421,,33.4433,33.4414,,33.4433,33.4433,5.6176,,5.9410,5.9649,5.7082,,5.9720,5.9831,5.9740,244.717,258.3260,258.5214,248.664,269.4235,259.3901,258.9558,0.1340,,0.7563,0.7234,2.5322,,4.6005,,25.1874,,25.1868,,,,,,,,,,,12.9936,12.9936,0.1212,278.049,93.855,95.368,,,,,,,,,,,,
CalCOFI,2105SH,016,,2105_016d,07-May-2021 14:13:01,07-May-2021 06:13:01,31.75164,-121.31424,090.0 080.0,090.0,080.0,42.000,42.298,,12.9939,,12.9940,,12.9940,33.4513,,33.4525,33.4510,,33.4529,33.4527,5.6111,,5.9342,5.9580,5.7107,,5.9745,5.9857,5.9719,244.435,258.0311,258.2260,248.772,269.1190,259.5019,258.8640,0.1417,,0.8102,0.7729,2.5292,,4.6005,,25.1956,,25.1953,,,,,,,,,,,12.9882,12.9883,0.1240,277.297,93.742,95.406,,,,,,,,,,,,
CalCOFI,2105SH,016,,2105_016d,07-May-2021 14:13:03,07-May-2021 06:13:03,31.75166,-121.31424,090.0 080.0,090.0,080.0,43.000,43.305,,12.9870,,12.9872,,12.9871,33.4636,,33.4648,33.4632,,33.4651,33.4650,5.6371,,5.9614,5.9855,5.7073,,5.9710,5.9821,5.9838,245.565,259.2125,259.4099,248.619,270.3394,259.3436,259.3768,0.1263,,0.7022,0.6740,2.5246,,4.6005,,25.2065,,25.2062,,,,,,,,,,,12.9812,12.9814,0.1268,276.283,94.170,95.342,,,,,,,,,,,,
CalCOFI,2105SH,016,,2105_016d,07-May-2021 14:13:05,07-May-2021 06:13:05,31.75166,-121.31424,090.0 080.0,090.0,080.0,44.000,44.313,,12.9880,,12.9886,,12.9883,33.4700,,33.4712,33.4700,,33.4719,33.4716,5.6253,,5.9490,5.9730,5.6984,,5.9618,5.9729,5.9730,245.050,258.6741,258.8703,248.233,269.7832,258.9442,258.9073,0.1335,,0.7528,0.7202,2.5189,,4.6005,,25.2113,,25.2112,,,,,,,,,,,12.9820,12.9826,0.1296,275.858,93.979,95.201,,,,,,,,,,,,
CalCOFI,2105SH,016,,2105_016d,07-May-2021 14:13:07,07-May-2021 06:13:07,31.75166,-121.31424,090.0 080.0,090.0,080.0,45.000,45.320,,12.9840,,12.9841,,12.9841,33.4745,,33.4757,33.4740,,33.4759,33.4758,5.5829,,5.9047,5.9281,5.6889,,5.9520,5.9629,5.9455,243.198,256.7380,256.9301,247.816,267.7830,258.5129,257.7215,0.1360,,0.7704,0.7363,2.5149,,4.6005,,25.2156,,25.2152,,,,,,,,,,,12.9779,12.9780,0.1323,275.473,93.264,95.035,,,,,,,,,,,,
CalCOFI,2105SH,016,,2105_016d,07-May-2021 14:13:09,07-May-2021 06:13:09,31.75166,-121.31425,090.0 080.0,090.0,080.0,46.000,46.327,,12.9338,,12.9339,,12.9339,33.4791,,33.4803,33.4777,,33.4796,33.4800,5.5925,,5.9147,5.9383,5.6569,,5.9188,5.9295,5.9339,243.614,257.1729,257.3659,246.422,268.2323,257.0708,257.2184,0.1217,,0.6697,0.6444,2.5089,,4.6005,,25.2291,,25.2280,,,,,,,,,,,12.9276,12.9277,0.1351,274.214,93.331,94.406,,,,,,,,,,,,
CalCOFI,2105SH,016,,2105_016d,07-May-2021 14:13:11,07-May-2021 06:13:11,31.75166,-121.31426,090.0 080.0,090.0,080.0,47.000,47.334,,12.8576,,12.8568,,12.8572,33.4812,,33.4824,33.4794,,33.4813,33.4819,5.5099,,5.8284,5.8509,5.5799,,5.8391,5.8492,5.8501,240.011,253.4063,253.5912,243.060,264.3410,253.5928,253.5920,0.1174,,0.6393,0.6168,2.4993,,4.6005,,25.2457,,25.2445,,,,,,,,,,,12.8513,12.8505,0.1379,272.652,91.808,92.972,,,,,,,,,,,,
CalCOFI,2105SH,016,,2105_016d,07-May-2021 14:13:13,07-May-2021 06:13:13,31.75166,-121.31426,090.0 080.0,090.0,080.0,48.000,48.341,,12.7560,,12.7511,,12.7536,33.4878,,33.4890,33.4854,,33.4873,33.4882,5.4764,,5.7933,5.8154,5.5384,,5.7961,5.8059,5.8107,238.548,251.8769,252.0585,241.248,262.7610,251.7183,251.8884,0.1096,,0.5838,0.5667,2.4908,,4.6005,,25.2708,,25.2699,,,,,,,,,,,12.7496,12.7447,0.1406,270.286,91.063,92.083,,,,,,,,,,,,
CalCOFI,2105SH,016,,2105_016d,07-May-2021 14:13:14,07-May-2021 06:13:14,31.75168,-121.31426,090.0 080.0,090.0,080.0,49.000,49.349,,12.6415,,12.6383,,12.6399,33.4947,,33.4959,33.4913,,33.4932,33.4946,5.4552,,5.7711,5.7930,5.4980,,5.7542,5.7637,5.7784,237.618,250.9047,251.0841,239.481,261.7566,249.8904,250.4873,0.1047,,0.5489,0.5352,2.4826,,4.6005,,25.2985,,25.2965,,,,,,,,,,,12.6350,12.6318,0.1433,267.664,90.500,91.201,,,,,,,,,,,,
CalCOFI,2105SH,016,,2105_016d,07-May-2021 14:13:16,07-May-2021 06:13:16,31.75168,-121.31426,090.0 080.0,090.0,080.0,50.000,50.356,,12.5523,,12.5481,,12.5502,33.4950,,33.4962,33.4910,,33.4929,33.4946,5.3952,,5.7084,5.7295,5.4724,,5.7277,5.7370,5.7333,235.000,248.1678,248.3414,238.364,258.9292,248.7348,248.5381,0.1013,,0.5245,0.5134,2.4706,,4.6005,,25.3161,,25.3138,,,,,,,,,,,12.5456,12.5414,0.1460,266.013,89.338,90.607,,,,,,,,,,,,
CalCOFI,2105SH,016,,2105_016d,07-May-2021 14:13:18,07-May-2021 06:13:18,31.75168,-121.31428,090.0 080.0,090.0,080.0,51.000,51.363,,12.3886,,12.3882,,12.3884,33.5172,,33.5184,33.5131,,33.5150,33.5167,5.3740,,5.6862,5.7070,5.4411,,5.6953,5.7043,5.7057,234.068,247.1935,247.3650,236.989,257.9226,247.3124,247.3387,0.0934,,0.4677,0.4626,2.4487,,4.6005,,25.3649,,25.3618,,,,,,,,,,,12.3819,12.3815,0.1487,261.385,88.698,89.801,,,,,,,,,,,,
CalCOFI,2105SH,016,,2105_016d,07-May-2021 14:13:21,07-May-2021 06:13:21,31.75168,-121.31428,090.0 080.0,090.0,080.0,52.000,52.370,,12.2855,,12.2839,,12.2847,33.5391,,33.5403,33.5356,,33.5375,33.5389,5.3023,,5.6112,5.6312,5.3536,,5.6047,5.6130,5.6221,230.935,243.9182,244.0827,233.171,254.5389,243.3627,243.7227,0.0894,,0.4389,0.4369,2.4262,,4.6005,,25.4017,,25.3992,,,,,,,,,,,12.2787,12.2771,0.1513,257.902,87.337,88.178,52,12.048,,,242.31,0.414,0.267,9.06,0.204,0.67,0.93,6.61
CalCOFI,2105SH,016,,2105_016d,07-May-2021 14:13:22,07-May-2021 06:13:22,31.75168,-121.31428,090.0 080.0,090.0,080.0,53.000,53.378,,12.2022,,12.1939,,12.1981,33.5500,,33.5512,33.5470,,33.5489,33.5501,5.2642,,5.5714,5.5908,5.3170,,5.5667,5.5748,5.5828,229.270,242.1777,242.3383,231.571,252.7407,241.7075,242.0229,0.0932,,0.4663,0.4613,2.4142,,4.6005,,25.4260,,25.4253,,,,,,,,,,,12.1953,12.1870,0.1539,255.606,86.565,87.417,,,,,,,,,,,,
CalCOFI,2105SH,016,,2105_016d,07-May-2021 14:13:23,07-May-2021 06:13:23,31.75169,-121.31428,090.0 080.0,090.0,080.0,54.000,54.385,,12.0562,,12.0510,,12.0536,33.5689,,33.5701,33.5651,,33.5670,33.5686,5.2523,,5.5590,5.5782,5.3114,,5.5609,5.5689,5.5736,228.741,241.6246,241.7841,231.314,252.1694,241.4416,241.6129,0.0935,,0.4685,0.4632,2.4020,,4.6005,,25.4684,,25.4664,,,,,,,,,,,12.0493,12.0441,0.1564,251.589,86.115,87.072,,,,,,,,,,,,
CalCOFI,2105SH,016,,2105_016d,07-May-2021 14:13:25,07-May-2021 06:13:25,31.75170,-121.31428,090.0 080.0,090.0,080.0,55.000,55.392,,11.9712,,11.9704,,11.9708,33.5770,,33.5782,33.5726,,33.5745,33.5764,5.2172,,5.5222,5.5411,5.2875,,5.5362,5.5440,5.5426,227.209,240.0231,240.1791,230.270,250.5149,240.3616,240.2704,0.0862,,0.4157,0.4163,2.3796,,4.6005,,25.4907,,25.4874,,,,,,,,,,,11.9641,11.9634,0.1589,249.486,85.392,86.539,,,,,,,,,,,,